Simultaneous Nadir Overpasses (SNOs) Predictions

Prediction of SNOs between METOP-B and TERRA Satellite Orbit:

Table of predicted SNOs for the next 14.0 days since TLE Epoch: 3/20/2021
Index Date (METOP-B) Time (METOP-B) Lat,Lon (METOP-B) SZA (METOP-B ) Date (TERRA) Time (TERRA) Lat,Lon (TERRA) SZA (TERRA ) Distance(km) Time Diff (sec)
1 03/21/2021 13:52:03 -81.31,-161.45 96.66 03/21/2021 13:52:08 -81.31,-161.48 96.66 0.66 5
2 03/21/2021 14:42:43 81.31, 6.15 83.36 03/21/2021 14:41:34 81.31, 6.26 83.34 1.95 69
3 03/24/2021 08:35:44 81.30, 97.29 82.24 03/24/2021 08:36:54 81.31, 97.36 82.28 1.35 70
4 03/24/2021 09:26:24 -81.31, -95.05 97.74 03/24/2021 09:26:21 -81.30, -95.07 97.75 0.63 3
5 03/27/2021 04:10:04 81.30, 163.68 81.16 03/27/2021 04:11:06 81.30, 163.71 81.19 0.48 62
6 03/27/2021 05:00:44 -81.31, -28.66 98.82 03/27/2021 05:00:33 -81.30, -28.70 98.84 1.04 11
7 03/29/2021 23:44:25 81.30,-129.94 80.09 03/29/2021 23:45:19 81.30,-129.98 80.10 0.91 54
8 03/30/2021 00:35:04 -81.31, 38.10 99.85 03/30/2021 00:34:45 -81.32, 38.02 99.86 1.45 19
9 04/01/2021 19:18:45 81.31, -63.19 79.07 04/01/2021 19:19:31 81.31, -63.32 79.07 2.26 46



Historial Predications of SNOs between METOP-B and TERRA
